Location: Rumah Long Bangan
(2.8362°N, 113.7519°E)
Time: 19:02:24
(UTC+00:00)

Cosmos 1908 - Pass Details

Date: 24 October 2021
Orbit: 509 x 528 km, 82.5° (Epoch: 07 December)

Event Time Altitude Azimuth Distance (km) Brightness Sun altitude
Rises 21:08:03 0° 1° (N) 2,600 6.7 -15.5°
Reaches altitude 10° 21:10:10 10° 5° (N) 1,718 5.8 -15.0°
Maximum altitude 21:13:54 63° 86° (E) 570 3.6 -14.1°
Drops below altitude 10° 21:17:39 10° 168° (SSE) 1,728 6.2 -13.2°
Sets 21:19:47 0° 171° (S) 2,618 7.1 -12.7°
